sat.trackr.live / text

‹ back to catalog

STARLINK-11205 [DTC]

NORAD 60313 · 2024-133N

PAYLOAD ACTIVE UNKNOWN

§ Identity

Operator
Country
US
Launch date
2024-07-28
Launch site
AFWTR
Launch vehicle
Mass (kg)
RCS (m²)

Purposes: comms

External: N2YO · Heavens-Above · Gunter

§ Orbital elements

Epoch: 2026-05-25T02:43:38.845920Z

Period
91.73 min
Inclination
53.1587°
Eccentricity
0.0000786
Mean motion
15.69741295 rev/d
Perigee alt
359.1 km
Apogee alt
360.2 km
Semi-major
6,737.8 km
B*
4.2663e-5
RAAN
129.7468°
Arg perigee
85.3861°
Mean anomaly
274.7247°
Rev number
10,573

§ Raw data

STARLINK-11205 [DTC]1 60313U 24133N   26145.11364405  .00004590  00000+0  42663-4 0  99902 60313  53.1587 129.7468 0000786  85.3861 274.7247 15.69741295105731

JSON: /api/v1/satellites/60313 · /tle

For live sub-satellite position, see the globe view (requires WebGL).

§ Visibility from observer

Set your observer location to see the next 7 days of passes ≥ 10°. The values pass through the URL so the page stays shareable.

No JS? Fill the form by hand. The geolocation button needs JavaScript.